Regional Weather Roundup
Issued by NWS State College, PA

Home | Current Version | Previous Version | Graphics & Text | Print | Product List | Glossary On
Versions: 1 2 3 4 5 6 7 8 9 10 11 12 13 14 15 16 17 18 19 20 21 22 23 24 25 26 27 28 29 30 31 32 33 34 35 36 37 38 39 40 41 42 43 44 45 46 47 48 49 50
000
ASUS41 KCTP 291310
RWRCTP

REGIONAL WEATHER ROUNDUP
NATIONAL WEATHER SERVICE STATE COLLEGE PA
900 AM EDT FRI AUG 29 2014

Note: "fair" indicates few or no clouds below 12,000 feet with no
significant weather and/or obstructions to visibility.

* = STATION THAT DOES NOT REPORT PRECIPITATION /E.G. RAIN...SNOW...ETC/
    THUNDER OR FOG.

PAZ002>004-007>009-013>016-020>023-029>032-291400-
WESTERN PENNSYLVANIA

CITY           SKY/WX    TMP DP  RH WIND       PRES   REMARKS
ERIE           MOSUNNY   62  50  64 SE7       30.20R
MEADVILLE      MOSUNNY   59  48  67 E6        30.20S
FRANKLIN*      MOSUNNY   55  48  76 E6        30.22F
NEW CASTLE     FAIR      56  53  89 CALM      30.20F
BEAVER COUNTY  SUNNY     55  50  82 CALM      30.19S
BUTLER*        SUNNY     57  50  77 E6        30.21F
PITTSBURGH INT PTSUNNY   56  53  90 E6        30.19S
PITTSBURGH     SUNNY     57  51  80 CALM      30.19S
INDIANA*       SUNNY     59  52  77 E6        30.24F
LATROBE        SUNNY     61  54  77 E5        30.21R
WASHINGTON CO* SUNNY     55  54  94 NE3       30.18F
$$

PAZ004>006-010>012-017>019-024>028-033>037-041-042-045-046-049>053-291400-
CENTRAL PENNSYLVANIA

CITY           SKY/WX    TMP DP  RH WIND       PRES   REMARKS
BRADFORD       PTSUNNY   53  48  83 CALM      30.23R
DUBOIS         NOT AVBL
CLEARFIELD     MOSUNNY   51  50  96 CALM      30.24R
JOHNSTOWN      SUNNY     57  48  72 S5        30.22S
ALTOONA        SUNNY     57  54  89 SW3       30.24R
STATE COLLEGE  SUNNY     55  52  88 CALM      30.22S
WILLIAMSPORT   MOSUNNY   58  51  78 SW5       30.22R
SELINSGROVE    SUNNY     59  54  83 CALM      30.23S
FT INDIANTOWN  MOSUNNY   64  53  68 CALM      30.21S
CAPITAL CITY   MOSUNNY   61  53  75 W3        30.21S
HARRISBURG     MOSUNNY   63  54  72 NW5       30.21R
YORK           MOSUNNY   59  55  87 CALM      30.21S
$$

PAZ038>040-043-044-047-048-054-055-060>062-067>071-291400-
EASTERN PENNSYLVANIA

CITY           SKY/WX    TMP DP  RH WIND       PRES   REMARKS
SCRANTON       SUNNY     59  51  75 CALM      30.23R
MOUNT POCONO   SUNNY     59  51  75 NW6       30.22R
ALLENTOWN      MOSUNNY   63  52  67 CALM      30.21R
QUAKERTOWN*    PTSUNNY   63  52  67 CALM      30.21S
READING        PTSUNNY   61  52  72 CALM      30.20R
LANCASTER      MOSUNNY   62  53  72 CALM      30.21S
COATESVILLE    MOSUNNY   61  57  88 N6        30.21S
POTTSTOWN      PTSUNNY   63  52  67 NW5       30.21S
BLUE BELL      PTSUNNY   64  54  68 CALM      30.19S
DOYLESTOWN     MOSUNNY   64  53  67 N3        30.19R
WILLOW GROVE   NOT AVBL
NORTH PHILA    MOSUNNY   66  51  58 N8        30.20R
PHILADELPHIA   PTSUNNY   67  51  56 N7        30.19R
$$



USA.gov is the U.S. government's official web portal to all federal, state and local government web resources and services.